COSMOS 1261 DEB, 35507

Orbit data source: Space-Track

COSMOS 1261 DEB, 35507 is space debris originally from a launch on Tue, 31 Mar 1981 UTC launched from the Plesetsk Missile And Space Complex (PKMTR). Debris objects in space refer to the collection of defunct objects orbiting the Earth. Examples of debris include non-operational satellites, rocket bodies, and fragments generated from explosions, collisions, or faulty payload assembly.

Loading next visibility...
Identifier
35507, 1981-031N
Orbit
Molniya
Country
Flag of CISCIS
Related business
Manufacturer
Unknown
Mission
Spacecraft
Bus & Motor
Unknown
Mass
Unknown
Launch date (UTC)
1981-03-31 (45 years ago)
Launch vehicle
Unknown
Launch site
Plesetsk Missile And Space Complex (PKMTR)
Object type
Payload
Rocket body
Debris
Shape & HBR
Unknown shape, 0.3 m
Radar Cross Section
Medium (>0.1 m² and <1 m²)

Expand to show TLE details & history
Last TLE update: 3 days ago

TLE from 3 days ago
0 COSMOS 1261 DEB
1 35507U 81031N   25301.86258231 -.00000042  00000-0  34690-3 0  9991
2 35507  62.7617 334.5421 7360765  40.4324 355.6667  2.01793821 93759
Epoch: 2025-10-28T20:42Z
TLE epoch observation values (Epoch: 2025-10-28T20:42:07.111Z)
Latitude
-0.00009°
Longitude
-13.4245°
Altitude
1,363.016 km
Speed
9.377 km/s
True Right ascension
22h 18m 11s
True Declination
0° 00' 00"
Sunlit
Object was in daylight at epoch
Visualization orbit readout
Latitude
Unknown
Longitude
Unknown
Altitude
Unknown
Speed
Unknown
Apparent Right ascension
Unknown
Apparent Declination
Unknown
Sunlit
N/A
Visualization observer readout
Local Sidereal Time
06:48:41
Azimuth
Unknown
Elevation
Unknown
Doppler factor
Unknown
Orbital elements
Apogee altitude
39,543.358 km
Perigee altitude
602.985 km
Semi-major axis
26,451.308 km
Eccentricity
0.73608
Inclination
62.7617°
RAAN
334.5421°
Arg. of periapsis
40.4324°
True anomaly
320.68897°
Mean anomaly
355.6667°
Eccentric anomaly
344.14357°
Mean motion
0.50451 °/min
Orbital period
713.56 mins
BSTAR
0.0003469
Loading maneuver chart data...
Computing Atmospheric mass density...
Loading historical data...
Loading historical data...
Loading historical data...
Loading historical data...
Loading historical data...
Loading historical data...
Loading historical data...

Documentation

Showing up to 5 results
|